Date String (YYYY-MM-DD hh:mm:ss) UTC,Instrument flags,Ambient pressure (hPa),Sample flow (lpm),Bypass flow (lpm),Sample temperature (°C),Ambient temperature (°C),ASC tube jacket temperature (°C),LED temperature (°C),Box temperature (°C),Sample RH (%),Span deviation,Mass concentration (μg/m³),Mass concentration (μg/m³),Mass concentration (μg/m³)
DateTimeUTC,F1_M11,P_M11,Q1_M11,Q2_M11,T1_M11,T2_M11,T3_M11,T4_M11,T5_M11,U1_M11,ZSPAN_M11,X0_M11,X2_M11,X1_M11
2021-10-21 10:00:00,,0831.2,5.00,0.00,25.5,24.7,00.0,34.6,27.3,14.6,0001.7,0010.11,0004.42,0003.60
2021-10-21 10:01:00,,0831.2,4.99,0.00,25.5,24.7,00.0,34.6,27.4,14.7,0001.5,0009.41,0004.42,0003.62
2021-10-21 10:02:00,,0831.2,5.00,0.00,25.5,24.7,00.0,34.6,27.3,14.7,0001.0,0009.31,0004.38,0003.62
2021-10-21 10:03:00,,0831.2,5.00,0.00,25.5,24.7,00.0,34.6,27.3,14.7,-000.2,0009.09,0004.41,0003.62
2021-10-21 10:04:00,,0831.2,5.01,0.00,25.5,24.7,00.0,34.6,27.3,14.6,-001.1,0009.27,0004.44,0003.62
2021-10-21 10:05:00,,0831.1,4.99,0.00,25.5,24.6,00.0,34.6,27.3,14.6,-000.5,0009.32,0004.43,0003.63
2021-10-21 10:06:00,,0831.2,5.01,0.00,25.5,24.6,00.0,34.6,27.3,14.7,-000.4,0009.40,0004.43,0003.64
2021-10-21 10:07:00,,0831.1,5.00,0.00,25.5,24.6,00.0,34.6,27.3,14.6,-000.4,0009.69,0004.45,0003.65
2021-10-21 10:08:00,,0831.2,5.00,0.00,25.5,24.6,00.0,34.6,27.2,14.5,-000.7,0009.92,0004.48,0003.65
2021-10-21 10:09:00,,0831.2,5.01,0.00,25.5,24.6,00.0,34.6,27.2,14.5,-001.3,0010.14,0004.49,0003.64
2021-10-21 10:10:00,,0831.2,5.00,0.00,25.5,24.6,00.0,34.6,27.3,14.5,-001.6,0010.40,0004.53,0003.65
2021-10-21 10:11:00,,0831.4,5.00,0.00,25.4,24.6,00.0,34.6,27.2,14.6,-000.3,0010.46,0004.51,0003.66
2021-10-21 10:12:00,,0831.3,5.00,0.00,25.4,24.5,00.0,34.5,27.1,14.6,0000.0,0010.56,0004.46,0003.67
2021-10-21 10:13:00,,0831.3,4.99,0.00,25.3,24.4,00.0,34.5,27.0,14.6,0000.0,0010.16,0004.48,0003.67
2021-10-21 10:14:00,,0831.4,4.99,0.00,25.2,24.3,00.0,34.5,27.0,14.6,0000.0,0010.28,0004.44,0003.66
2021-10-21 10:15:00,,0831.4,5.00,0.00,25.2,24.3,00.0,34.5,27.0,14.6,0000.0,0010.43,0004.43,0003.66
2021-10-21 10:16:00,,0831.4,5.00,0.00,25.2,24.3,00.0,34.4,27.0,14.7,0000.0,0011.45,0004.44,0003.67
2021-10-21 10:17:00,,0831.3,4.99,0.00,25.2,24.3,00.0,34.4,27.0,14.7,0000.0,0011.69,0004.49,0003.67
2021-10-21 10:18:00,,0831.4,5.01,0.00,25.2,24.3,00.0,34.4,27.0,14.7,0000.0,0011.44,0004.50,0003.66
2021-10-21 10:19:00,,0831.4,4.99,0.00,25.2,24.4,00.0,34.4,27.0,14.8,0000.0,0011.32,0004.47,0003.67
2021-10-21 10:20:00,,0831.4,5.00,0.00,25.2,24.4,00.0,34.4,27.0,14.9,0000.0,0011.42,0004.48,0003.68
2021-10-21 10:21:00,,0831.4,5.00,0.00,25.2,24.4,00.0,34.4,27.0,14.9,0000.0,0011.65,0004.49,0003.71
2021-10-21 10:22:00,,0831.3,4.99,0.00,25.2,24.4,00.0,34.4,27.0,15.0,0000.0,0011.51,0004.50,0003.71
2021-10-21 10:23:00,,0831.2,5.01,0.00,25.2,24.4,00.0,34.4,27.0,15.0,0000.0,0011.59,0004.52,0003.72
2021-10-21 10:24:00,,0831.2,4.99,0.00,25.3,24.4,00.0,34.4,27.0,14.9,0000.1,0012.01,0004.52,0003.73
2021-10-21 10:25:00,,0831.2,5.00,0.00,25.3,24.5,00.0,34.4,27.1,14.9,0002.4,0012.13,0004.52,0003.74
2021-10-21 10:26:00,,0831.3,5.01,0.00,25.3,24.5,00.0,34.4,27.1,14.9,0001.7,0011.89,0004.57,0003.77
2021-10-21 10:27:00,,0831.4,4.99,0.00,25.3,24.5,00.0,34.4,27.1,14.9,0002.0,0011.00,0004.56,0003.78
2021-10-21 10:28:00,,0831.4,5.00,0.00,25.3,24.4,00.0,34.4,27.1,14.9,0002.4,0010.61,0004.55,0003.80
2021-10-21 10:29:00,,0831.3,5.00,0.00,25.2,24.4,00.0,34.4,27.1,14.9,0003.2,0010.55,0004.54,0003.82
2021-10-21 10:30:00,,0831.2,5.00,0.00,25.2,24.3,00.0,34.4,27.0,15.0,0003.8,0010.45,0004.55,0003.83
2021-10-21 10:31:00,,0831.3,4.99,0.00,25.2,24.3,00.0,34.3,26.9,14.9,0003.6,0010.81,0004.57,0003.84
2021-10-21 10:32:00,,0831.4,5.00,0.00,25.1,24.2,00.0,34.3,26.9,14.9,0003.2,0010.90,0004.56,0003.83
2021-10-21 10:33:00,,0831.5,5.00,0.00,25.1,24.2,00.0,34.3,26.8,14.9,0003.4,0010.63,0004.52,0003.82
2021-10-21 10:34:00,,0831.5,4.99,0.00,25.1,24.2,00.0,34.3,26.9,14.9,0003.6,0010.45,0004.52,0003.82
2021-10-21 10:35:00,,0831.5,4.99,0.00,25.1,24.2,00.0,34.3,26.8,14.9,0003.6,0010.66,0004.53,0003.80
2021-10-21 10:36:00,,0831.5,5.01,0.00,25.1,24.2,00.0,34.3,26.8,14.9,0003.3,0010.34,0004.56,0003.80
2021-10-21 10:37:00,,0831.5,4.99,0.00,25.1,24.2,00.0,34.2,26.8,14.9,0003.6,0010.40,0004.54,0003.79
2021-10-21 10:38:00,,0831.5,5.01,0.00,25.0,24.2,00.0,34.2,26.8,14.8,0003.5,0010.83,0004.54,0003.78
2021-10-21 10:39:00,,0831.5,5.00,0.00,25.0,24.2,00.0,34.2,26.8,14.8,0003.4,0010.82,0004.52,0003.76
2021-10-21 10:40:00,,0831.5,4.99,0.00,25.0,24.2,00.0,34.2,26.8,14.9,0002.9,0010.80,0004.52,0003.75
2021-10-21 10:41:00,,0831.4,4.99,0.00,25.0,24.1,00.0,34.2,26.7,14.9,0002.2,0010.99,0004.49,0003.73
2021-10-21 10:42:00,,0831.4,5.00,0.00,24.9,24.1,00.0,34.2,26.7,14.9,0002.0,0011.62,0004.48,0003.72
2021-10-21 10:43:00,,0831.5,5.00,0.00,24.9,24.1,00.0,34.1,26.7,14.9,0002.3,0012.22,0004.48,0003.73
2021-10-21 10:44:00,,0831.4,5.00,0.00,24.9,24.0,00.0,34.1,26.6,14.9,0001.8,0013.03,0004.51,0003.73
2021-10-21 10:45:00,,0831.6,4.99,0.00,24.9,24.0,00.0,34.1,26.6,14.9,0001.8,0013.70,0004.54,0003.73
2021-10-21 10:46:00,,0831.5,5.00,0.00,24.9,24.0,00.0,34.1,26.6,14.9,0001.6,0014.10,0004.54,0003.74
2021-10-21 10:47:00,,0831.5,5.00,0.00,24.8,24.0,00.0,34.1,26.6,14.9,0001.4,0014.43,0004.54,0003.74
2021-10-21 10:48:00,,0831.5,5.01,0.00,24.8,24.0,00.0,34.0,26.6,15.0,0001.7,0015.99,0004.55,0003.73
2021-10-21 10:49:00,,0831.5,5.00,0.00,24.8,24.0,00.0,34.0,26.6,15.0,0001.8,0016.12,0004.56,0003.73
2021-10-21 10:50:00,,0831.5,5.01,0.00,24.8,24.0,00.0,34.0,26.6,15.0,0001.6,0016.98,0004.60,0003.73
2021-10-21 10:51:00,,0831.4,4.99,0.00,24.8,24.0,00.0,34.0,26.7,15.0,0001.0,0017.02,0004.61,0003.74
2021-10-21 10:52:00,,0831.4,4.99,0.00,24.8,24.1,00.0,34.0,26.7,15.0,0001.2,0016.76,0004.62,0003.75
2021-10-21 10:53:00,,0831.4,5.01,0.00,24.9,24.1,00.0,34.0,26.7,15.1,0000.0,0015.61,0004.61,0003.77
2021-10-21 10:54:00,,0831.3,4.99,0.00,24.9,24.1,00.0,34.0,26.7,15.2,0000.0,0014.47,0004.61,0003.77
2021-10-21 10:55:00,,0831.4,5.00,0.00,24.8,24.0,00.0,34.0,26.6,15.2,0000.0,0013.97,0004.64,0003.78
2021-10-21 10:56:00,,0831.4,4.99,0.00,24.8,24.0,00.0,34.0,26.6,15.3,0000.0,0013.75,0004.65,0003.79
2021-10-21 10:57:00,,0831.4,5.00,0.00,24.7,23.9,00.0,33.9,26.5,15.3,0000.0,0012.66,0004.60,0003.79
2021-10-21 10:58:00,,0831.4,4.99,0.00,24.7,23.9,00.0,33.9,26.4,15.3,0000.0,0012.53,0004.62,0003.81
2021-10-21 10:59:00,,0831.4,5.01,0.00,24.6,23.8,00.0,33.9,26.4,15.3,0000.0,0011.10,0004.63,0003.83
